[[{"header":{"parameterUnit":"m.s-1","parameterCategory":1,"la1":30.2991,"la2":30.254,"lo1":-89.0895,"lo2":-89.0444,"dy":0.0017,"dx":0.0017,"nx":28,"ny":28,"refTime":"2025-12-15T09:00:00:Z","depth":0,"parameterNumber":2,"parameterNumberName":"U-component_of_WINDS"},"data":[0,0,0,0,0,0,0,0,0,0,0,0,0,0,0,0,0,0,0,0,0,0,0,0,0,0,0,0,0,0,0,0,0,0,0,0,0,0,0,0,0,0,0,0,0,0,0,0,0,0,0,0,0,0,0,0,0,0,-4.4557,-4.4558,0,-4.464,-4.4641,-4.4642,-4.4554,-4.4551,-4.4548,-4.4544,-4.4628,-4.4633,-4.4638,0,0,0,0,0,0,0,0,0,0,0,0,0,-4.4319,-4.4324,-4.4557,-4.4558,-4.4559,-4.464,-4.4641,-4.4642,-4.4555,-4.4551,-4.4547,-4.4543,-4.4626,-4.4632,-4.4639,0,0,0,0,0,0,0,0,0,0,0,0,0,-4.4415,-4.4326,-4.4557,-4.4525,-4.4523,-4.464,-4.4641,-4.4643,-4.4556,-4.4551,-4.4546,-4.4541,-4.4624,-4.4632,-4.464,-4.4791,0,0,-4.4664,-4.4668,0,0,0,0,0,0,0,0,-4.4409,-4.4423,-4.4529,-4.4527,-4.4525,-4.4582,-4.4588,-4.4692,-4.4557,-4.4543,-4.4544,-4.4538,-4.4616,-4.4625,-4.4651,-4.4795,-4.4798,-4.4665,-4.467,-4.4673,-4.4675,0,0,0,0,0,0,0,-4.4403,-4.4419,-4.459,-4.453,-4.4528,-4.4506,-4.4514,-4.4607,-4.4607,-4.4544,-4.4538,-4.4549,-4.4614,-4.4644,-4.4653,-4.4799,-4.4665,-4.4672,-4.4677,-4.468,-4.5069,-4.5074,0,0,0,0,0,0,-4.44,-4.4414,-4.4587,-4.4592,-4.4454,-4.4514,-4.4523,-4.4569,-4.4606,-4.4607,-4.4553,-4.4545,-4.4633,-4.4643,-4.4655,-4.4832,-4.4673,-4.4681,-4.4685,-4.5063,-4.507,-4.5076,0,0,0,0,0,0,-4.4395,-4.4416,-4.4584,-4.4502,-4.4521,-4.4524,-4.4576,-4.4573,-4.4602,-4.4613,-4.4612,-4.4584,-4.4629,-4.4644,-4.4757,-4.4834,-4.4684,-4.4692,-4.5057,-4.5065,-4.5073,-4.519,0,0,0,0,0,0,-4.4389,-4.4415,-4.4473,-4.4504,-4.4526,-4.4685,-4.458,-4.4578,-4.4617,-4.4606,-4.4641,-4.4642,-4.4626,-4.4746,-4.4765,-4.4843,-4.4698,-4.505,-4.5061,-4.507,-4.5179,-4.5201,-4.522,0,0,0,0,0,-4.4381,-4.4503,-4.4477,-4.4498,-4.4599,-4.469,-4.4703,-4.4682,-4.4623,-4.4681,-4.4688,-4.4641,-4.4824,-4.4758,-4.4779,-4.486,-4.5045,-4.5058,-4.507,-4.517,-4.5197,-4.5219,0,0,0,0,0,0,-4.448,-4.4506,-4.4477,-4.4613,-4.465,-4.4675,-4.4747,-4.4712,-4.4766,-4.4754,-4.4726,-4.4735,-4.4855,-4.4869,-4.4796,-4.5008,-4.4924,-4.4942,-4.4993,-4.5019,-4.5039,-4.5031,-4.4705,0,0,0,0,0,-4.4518,-4.4591,-4.4609,-4.4727,-4.4747,-4.4745,-4.4784,-4.4765,-4.4802,-4.4817,-4.4832,-4.4869,-4.4934,-4.4978,-4.5039,-4.5182,-4.5187,-4.5248,-4.5268,-4.5285,-4.5299,-4.5374,-4.54,-4.5117,-4.5117,-4.5116,0,0,-4.4597,-4.462,-4.4668,-4.4748,-4.4774,-4.4849,-4.4758,-4.4841,-4.4896,-4.4829,-4.4936,-4.495,-4.4989,-4.5117,-4.5174,-4.5133,-4.5379,-4.5301,-4.5314,-4.5319,-4.5389,-4.5416,-4.544,-4.5125,-4.5124,-4.5122,0,0,-4.4778,-4.4804,-4.4904,-4.4932,-4.4974,-4.4971,-4.4995,-4.5026,-4.5032,-4.514,-4.509,-4.5155,-4.5269,-4.5299,-4.5329,-4.5521,-4.5479,-4.5542,-4.5648,-4.5721,-4.5743,-4.5762,-4.5829,-4.5853,-4.5557,-4.5557,-4.5558,0,-4.487,-4.4981,-4.4959,-4.5046,-4.5082,-4.5026,-4.5126,-4.5155,-4.5214,-4.524,-4.5193,-4.5334,-4.5357,-4.549,-4.5537,-4.5565,-4.559,-4.5536,-4.5742,-4.5761,-4.5779,-4.5842,-4.5867,-4.5565,-4.5564,-4.5563,-4.5562,0,-4.5091,-4.5169,-4.5244,-4.5303,-4.5348,-4.5441,-4.5433,-4.5481,-4.5459,-4.5461,-4.5571,-4.5596,-4.5661,-4.5692,-4.5671,-4.5822,-4.5795,-4.5746,-4.5661,-4.5814,-4.5872,-4.5896,-4.5575,-4.5572,-4.557,-4.5568,0,0,-4.5334,-4.538,-4.5408,-4.5433,-4.5476,-4.5535,-4.5625,-4.5689,-4.5729,-4.5773,-4.5846,-4.5944,-4.5899,-4.5933,-4.5916,-4.598,-4.6128,-4.5923,-4.5923,-4.5957,-4.6293,-4.6328,-4.6356,-4.6102,-4.6107,-4.611,-4.6289,0,-4.5513,-4.567,-4.5653,-4.5802,-4.5872,-4.5821,-4.59,-4.5933,-4.5938,-4.5998,-4.6003,-4.6072,-4.6008,-4.6028,-4.609,-4.6097,-4.6195,-4.6085,-4.6168,-4.6171,-4.6156,-4.6387,-4.6424,-4.6591,-4.6312,-4.6316,-4.6319,0,-4.5743,-4.5794,-4.595,-4.598,-4.6009,-4.608,-4.6136,-4.6195,-4.6232,-4.6231,-4.627,-4.6241,-4.6331,-4.6247,-4.6368,-4.6294,-4.6328,-4.6336,-4.6342,-4.6346,-4.6252,-4.6394,-4.6644,-4.6668,-4.6355,-4.6352,-4.6349,0,-4.5901,-4.601,-4.6116,-4.614,-4.6179,-4.6229,-4.6248,-4.628,-4.6319,-4.6369,-4.6393,-4.6453,-4.6485,-4.6531,-4.6519,-4.6459,-4.6643,-4.6558,-4.6642,-4.6643,-4.668,-4.6678,-4.6936,-4.6708,-4.6708,-4.6707,-4.6707,0,-4.6101,-4.6198,-4.6188,-4.6253,-4.6359,-4.634,-4.6445,-4.6457,-4.6486,-4.6552,-4.6513,-4.6575,-4.6557,-4.6618,-4.661,-4.671,-4.6726,-4.6726,-4.6722,-4.6728,-4.6727,-4.6747,-4.6734,-4.6714,-4.6712,-4.6711,-4.671,0,-4.6294,-4.6292,-4.6404,-4.6432,-4.6441,-4.6518,-4.6541,-4.6602,-4.6605,-4.6689,-4.6707,-4.671,-4.6781,-4.6774,-4.6853,-4.6847,-4.6971,-4.6955,-4.6959,-4.6954,-4.7037,-4.7028,-4.7314,-4.735,-4.7102,-4.7104,-4.7106,0,-4.642,-4.6493,-4.6529,-4.6571,-4.6593,-4.666,-4.67,-4.6684,-4.6726,-4.6774,-4.6829,-4.6896,-4.6948,-4.7063,-4.7072,-4.7132,-4.7115,-4.7211,-4.7123,-4.7126,-4.7113,-4.7107,-4.7113,-4.7227,-4.723,-4.7232,-4.7234,0,-4.6644,-4.6639,-4.6698,-4.6757,-4.6805,-4.685,-4.6891,-4.6928,-4.6915,-4.6965,-4.7037,-4.7078,-4.7159,-4.7225,-4.7282,-4.73,-4.7265,-4.7262,-4.7284,-4.7289,-4.7287,-4.7286,-4.7002,-4.7255,-4.7253,-4.7251,-4.725,-4.7249,-4.6805,-4.6867,-4.6901,-4.6968,-4.6997,-4.7037,-4.7095,-4.7105,-4.7164,-4.7229,-4.7216,-4.7296,-4.7331,-4.7404,-4.7428,-4.7489,-4.7454,-4.7487,-4.7495,-4.7502,-4.751,-4.728,-4.75,-4.75,-4.7499,-4.7499,-4.7498,0,-4.7023,-4.7043,-4.7105,-4.7164,-4.7216,-4.718,-4.7224,-4.7269,-4.7341,-4.7376,-4.7429,-4.7511,-4.7575,-4.7589,-4.7651,-4.7697,-4.7682,-4.7713,-4.7708,-4.7712,-4.754,-4.7513,-4.7724,-4.7724,-4.7724,-4.7724,-4.7724,-4.7724,-4.7143,-4.7244,-4.7244,-4.736,-4.7379,-4.7457,-4.7485,-4.7521,-4.7549,-4.7642,-4.7695,-4.7705,-4.7732,-4.7794,-4.7851,-4.7854,-4.7877,-4.7914,-4.791,-4.7748,-4.7725,-4.7703,-4.7678,-4.792,-4.792,-4.8077,-4.8078,-4.8079]},{"header":{"parameterUnit":"m.s-1","parameterCategory":1,"la1":30.2991,"la2":30.254,"lo1":-89.0895,"lo2":-89.0444,"dy":0.0017,"dx":0.0017,"nx":28,"ny":28,"refTime":"2025-12-15T09:00:00:Z","depth":0,"parameterNumber":3,"parameterNumberName":"V-component_of_WINDS"},"data":[0,0,0,0,0,0,0,0,0,0,0,0,0,0,0,0,0,0,0,0,0,0,0,0,0,0,0,0,0,0,0,0,0,0,0,0,0,0,0,0,0,0,0,0,0,0,0,0,0,0,0,0,0,0,0,0,0,0,1.5877,1.5877,0,1.591,1.5911,1.5911,1.5892,1.5891,1.589,1.5889,1.592,1.5922,1.5924,0,0,0,0,0,0,0,0,0,0,0,0,0,1.5794,1.5795,1.5877,1.5877,1.5878,1.591,1.5911,1.5911,1.5892,1.5891,1.589,1.5889,1.592,1.5922,1.5924,0,0,0,0,0,0,0,0,0,0,0,0,0,1.5829,1.5796,1.5877,1.5872,1.5872,1.591,1.5911,1.5911,1.5892,1.5891,1.5889,1.5888,1.5919,1.5922,1.5924,1.5968,0,0,1.5932,1.5933,0,0,0,0,0,0,0,0,1.5827,1.5832,1.5872,1.5872,1.5872,1.5896,1.5893,1.593,1.5893,1.5884,1.5889,1.5887,1.5913,1.5916,1.5925,1.5969,1.5971,1.5932,1.5934,1.5935,1.5935,0,0,0,0,0,0,0,1.5824,1.583,1.589,1.5873,1.5873,1.5868,1.5871,1.59,1.5906,1.5885,1.5884,1.5888,1.5913,1.5923,1.5926,1.5971,1.5932,1.5934,1.5936,1.5937,1.6053,1.6055,0,0,0,0,0,0,1.5823,1.5828,1.5889,1.5891,1.5846,1.587,1.5874,1.5889,1.5906,1.5907,1.5889,1.5887,1.5919,1.5923,1.5927,1.5979,1.5935,1.5937,1.5939,1.6052,1.6054,1.6055,0,0,0,0,0,0,1.5821,1.5828,1.5888,1.5859,1.5867,1.5873,1.5891,1.5891,1.5901,1.5909,1.591,1.5899,1.5918,1.5923,1.5958,1.598,1.5938,1.5941,1.605,1.6052,1.6055,1.6085,0,0,0,0,0,0,1.5819,1.5828,1.5845,1.586,1.5868,1.5919,1.5892,1.5893,1.5906,1.5903,1.5918,1.5919,1.5917,1.5954,1.5961,1.5983,1.5943,1.6048,1.6051,1.6054,1.6082,1.6088,1.6093,0,0,0,0,0,1.5816,1.5851,1.5846,1.5853,1.589,1.592,1.5925,1.5923,1.5908,1.5925,1.593,1.5918,1.5977,1.5958,1.5965,1.5988,1.6047,1.605,1.6054,1.6079,1.6086,1.6093,0,0,0,0,0,0,1.5837,1.5853,1.5847,1.5889,1.5904,1.5917,1.5938,1.5931,1.595,1.5946,1.5943,1.5946,1.5983,1.5989,1.5968,1.6032,1.6009,1.6014,1.6026,1.6033,1.6039,1.6036,1.5945,0,0,0,0,0,1.5847,1.5871,1.5883,1.5919,1.5927,1.5931,1.5944,1.5942,1.5957,1.5963,1.5971,1.5984,1.6006,1.602,1.604,1.6083,1.6086,1.6102,1.6108,1.6113,1.6117,1.614,1.6147,1.6067,1.6067,1.6067,0,0,1.5866,1.5878,1.5893,1.5923,1.5934,1.5959,1.5937,1.5963,1.5981,1.5966,1.6,1.6007,1.6022,1.6061,1.6079,1.6067,1.614,1.6117,1.6121,1.6122,1.6144,1.6152,1.6158,1.6069,1.6069,1.6069,0,0,1.5915,1.5927,1.5958,1.597,1.5988,1.5991,1.5998,1.6014,1.6018,1.6052,1.6041,1.6062,1.61,1.6111,1.6122,1.6177,1.6167,1.6184,1.6212,1.6235,1.6241,1.6247,1.6266,1.6273,1.6188,1.6188,1.6188,0,1.5937,1.5974,1.5974,1.6002,1.6015,1.6005,1.6036,1.6047,1.6071,1.608,1.6067,1.6115,1.6124,1.6166,1.6179,1.6189,1.6197,1.6181,1.624,1.6246,1.6251,1.6269,1.6277,1.619,1.6189,1.6189,1.6189,0,1.6,1.6027,1.6049,1.6074,1.609,1.6119,1.6123,1.6139,1.6136,1.614,1.6175,1.6187,1.6209,1.6219,1.6216,1.6261,1.6253,1.6241,1.6218,1.6261,1.6278,1.6285,1.6192,1.6192,1.6191,1.6191,0,0,1.6061,1.6087,1.6095,1.6106,1.6126,1.6146,1.6175,1.6198,1.6212,1.6229,1.6252,1.6285,1.6274,1.6286,1.6284,1.6304,1.6347,1.6289,1.629,1.6299,1.6397,1.6406,1.6414,1.6341,1.6343,1.6344,1.6396,0,1.6111,1.6163,1.6164,1.6211,1.6235,1.6227,1.6252,1.6266,1.6272,1.6292,1.6298,1.6321,1.6305,1.6312,1.6332,1.6338,1.6367,1.6334,1.6363,1.6364,1.6358,1.6423,1.6432,1.648,1.6402,1.6404,1.6404,0,1.6175,1.6196,1.6246,1.6263,1.6273,1.6296,1.6318,1.6338,1.6354,1.6357,1.6372,1.6367,1.6396,1.6374,1.6413,1.6391,1.6403,1.6408,1.641,1.6412,1.6386,1.6426,1.6496,1.6503,1.6415,1.6414,1.6413,0,1.6214,1.6254,1.6289,1.6299,1.632,1.6337,1.6346,1.6361,1.6375,1.6395,1.6404,1.6426,1.6437,1.6454,1.6456,1.6439,1.6496,1.6473,1.6498,1.6498,1.6509,1.6508,1.6582,1.6519,1.6518,1.6518,1.6518,0,1.6269,1.63,1.6307,1.6329,1.6363,1.6365,1.6398,1.6406,1.642,1.6442,1.6436,1.6457,1.6458,1.648,1.6481,1.6514,1.6519,1.6521,1.6521,1.6521,1.6521,1.6528,1.6525,1.652,1.652,1.6519,1.6519,0,1.6318,1.6324,1.6362,1.638,1.6385,1.6409,1.6424,1.6444,1.645,1.6478,1.6485,1.6493,1.6518,1.6522,1.655,1.6551,1.6591,1.6587,1.6585,1.6585,1.6609,1.6606,1.6689,1.6699,1.663,1.6631,1.6631,0,1.6352,1.6376,1.6396,1.6412,1.6422,1.6447,1.6462,1.6464,1.648,1.6501,1.6519,1.6544,1.6564,1.6604,1.6612,1.6634,1.6631,1.6658,1.6634,1.6634,1.6631,1.6629,1.6631,1.6662,1.6663,1.6664,1.6664,0,1.6411,1.6414,1.6436,1.6461,1.6479,1.6498,1.6516,1.6528,1.6533,1.6551,1.6578,1.6593,1.6624,1.6648,1.6671,1.6679,1.6672,1.6672,1.6679,1.6679,1.6677,1.6678,1.6597,1.667,1.6669,1.6669,1.6669,1.6668,1.6453,1.6474,1.6493,1.6518,1.6532,1.6549,1.657,1.6578,1.6601,1.6626,1.6626,1.6655,1.6672,1.6701,1.6712,1.6734,1.6725,1.6735,1.6737,1.6739,1.6741,1.6674,1.6738,1.6738,1.6738,1.6737,1.6737,0,1.6512,1.6524,1.6548,1.6574,1.6594,1.6588,1.6607,1.6624,1.665,1.6666,1.6687,1.6717,1.6741,1.6752,1.6775,1.6791,1.6788,1.6797,1.6795,1.6797,1.6748,1.674,1.6799,1.6799,1.6799,1.6799,1.6799,1.6799,1.6545,1.658,1.6585,1.6627,1.6639,1.6668,1.668,1.6695,1.6708,1.6743,1.6764,1.6771,1.6785,1.681,1.6831,1.6834,1.6842,1.6852,1.6853,1.6807,1.6801,1.6795,1.6787,1.6854,1.6854,1.69,1.6901,1.6901]}]]